Theta_e
323 320 329 318 302 299 295 300 307 310 311 312 318 315 317 319 315 308 330 333 330 334 341 344 344 346 347 348 347 347 345 343 341 339 337 337 336 336 337 336 336 335 334 334 335 335 335 335 336
320 319 319 310 299 293 295 301 305 310 313 315 316 314 315 317 325 326 326 329 329 336 341 343 343 347 346 346 346 346 344 340 339 337 336 336 335 335 335 335 335 335 334 333 334 335 335 334 333
320 319 307 303 298 295 295 306 308 312 314 314 312 315 318 319 326 327 330 326 330 336 341 342 343 347 347 346 346 344 342 340 338 337 336 335 334 335 335 334 334 334 334 334 333 333 333 333 332
311 309 306 298 297 301 302 308 310 311 313 316 314 314 320 328 329 331 326 326 333 334 339 341 344 347 347 346 345 344 343 341 339 337 335 335 337 338 336 334 333 333 333 332 331 330 329 328 329
308 303 298 296 298 302 304 309 310 309 312 313 313 312 317 327 332 332 323 327 330 332 338 341 343 345 345 345 345 343 342 342 340 338 338 336 335 340 337 335 333 332 331 329 329 328 328 328 329
301 302 294 294 298 304 304 306 310 310 312 313 313 317 317 329 330 330 323 323 333 335 339 341 337 340 342 343 343 342 342 341 340 339 338 335 336 335 335 335 334 333 332 330 329 329 329 329 330
299 297 294 296 299 302 309 306 305 308 308 310 315 315 321 325 327 328 321 325 335 338 339 339 339 338 336 338 339 340 341 340 340 339 338 336 335 335 335 334 333 331 331 331 330 330 331 331 331
302 299 295 296 298 300 311 307 306 306 306 314 313 314 315 325 327 326 320 325 334 337 338 336 336 337 336 336 332 334 336 336 336 335 332 330 331 331 331 329 332 334 333 332 332 332 331 332 333
312 298 295 296 299 301 311 306 306 308 309 311 315 319 324 328 325 320 317 320 332 335 335 336 335 334 334 333 331 330 331 331 331 330 327 324 328 329 328 327 328 333 333 333 332 332 333 333 331
304 297 297 303 304 304 308 306 306 305 306 309 320 325 329 328 324 317 315 317 324 330 333 335 334 332 332 336 332 331 332 329 329 330 328 327 327 327 328 324 325 329 328 329 331 332 332 328 325
300 300 303 305 308 310 309 306 307 304 300 308 316 322 324 324 323 315 313 317 319 323 330 328 328 331 331 334 332 330 329 328 326 327 327 328 328 325 324 322 322 321 317 321 324 324 324 323 322
298 303 305 304 308 309 308 308 303 304 304 310 323 324 324 324 323 317 314 315 318 319 327 329 330 331 332 332 333 331 328 328 326 326 328 327 324 323 324 323 323 322 322 321 321 321 322 323 323
300 303 307 306 302 307 308 307 304 303 308 311 325 323 321 324 324 324 318 317 319 319 323 328 328 328 330 330 329 328 325 327 327 326 328 327 325 323 323 323 323 323 323 322 321 321 322 322 323
301 304 306 307 303 304 306 306 305 305 312 319 322 320 321 322 324 325 325 317 318 320 322 328 328 329 329 328 327 327 327 327 326 325 326 327 326 324 324 323 324 324 324 324 322 322 322 322 325
303 300 302 304 302 302 306 301 302 307 310 315 317 319 321 321 324 325 327 324 318 320 322 324 327 329 329 328 328 325 325 326 325 325 325 326 327 325 325 324 324 325 325 324 323 323 323 325 326
298 299 294 301 303 303 302 294 304 306 308 308 312 315 319 322 323 325 327 327 322 321 321 323 327 326 327 328 326 324 324 324 324 325 325 326 326 327 325 324 324 325 325 324 324 324 326 324 324
296 289 293 297 302 301 300 294 302 306 307 307 309 312 316 320 323 325 327 327 326 325 324 323 323 322 323 323 324 324 325 324 324 324 325 326 326 327 325 324 325 325 325 325 326 326 325 323 321
285 288 292 293 298 300 296 295 298 302 305 305 306 312 314 315 321 325 327 327 327 328 328 327 325 323 322 325 326 326 327 327 327 327 327 328 328 327 326 325 325 326 325 325 327 326 326 324 323
291 291 291 295 297 297 296 295 296 298 299 300 305 310 313 314 317 324 326 326 326 327 327 327 326 325 326 325 325 326 327 330 331 332 333 332 330 329 327 326 326 327 326 326 327 327 325 323 321
291 289 288 293 296 296 294 294 296 296 296 299 304 309 312 314 316 318 320 322 323 324 325 326 328 328 328 329 329 329 330 331 332 333 333 333 332 331 331 328 327 327 327 328 328 326 322 322 323
291 288 288 289 293 293 291 290 294 297 298 299 301 302 303 310 314 315 318 319 321 318 317 321 323 327 328 330 330 330 330 328 327 328 330 333 333 333 332 331 330 330 330 328 327 326 323 320 319
288 293 292 290 288 282 290 283 288 291 294 293 292 293 294 295 296 303 310 312 313 307 311 314 315 317 316 319 325 326 325 321 323 324 325 327 330 329 329 330 330 330 329 327 326 326 324 322 319
289 294 292 291 288 285 285 282 287 289 287 289 292 293 294 295 295 295 299 304 305 306 306 306 308 309 310 310 312 317 320 323 319 318 319 320 322 324 329 329 329 328 328 327 326 324 324 323 320
295 292 291 290 288 281 285 283 284 287 287 288 290 291 294 295 296 297 298 302 302 303 304 305 306 306 307 307 307 307 308 308 307 308 309 310 313 317 319 321 321 323 324 324 324 324 323 322 320
291 288 278 276 277 279 286 284 285 289 289 290 290 291 293 296 297 298 298 298 299 300 302 303 303 304 305 305 305 306 306 306 306 306 306 308 310 312 313 315 317 317 317 318 321 320 318 317 315
288 287 278 272 275 278 283 282 285 290 292 292 293 294 294 296 298 298 299 299 300 300 301 301 301 301 303 304 304 305 306 305 306 306 307 309 308 308 309 310 312 313 312 313 312 310 307 311 310
286 283 289 281 277 276 280 284 288 290 290 291 292 293 293 295 297 298 299 299 299 299 300 301 301 301 301 302 303 303 304 304 305 305 306 304 304 306 306 306 305 307 307 308 306 304 304 305 306
288 291 281 279 269 272 278 280 280 285 287 289 290 291 293 295 296 298 299 299 299 299 298 298 299 299 299 299 300 300 300 302 302 302 302 302 302 303 302 301 301 302 303 304 303 302 302 302 302
286 283 286 284 280 277 275 276 286 288 289 289 290 292 293 294 295 296 298 298 298 297 298 298 298 297 297 298 297 297 297 299 300 299 299 300 300 300 300 300 299 299 298 299 299 299 298 297 297
288 285 285 278 278 280 280 279 290 289 290 291 291 293 293 294 296 297 299 299 298 297 297 297 297 297 297 297 297 297 297 297 296 296 297 298 297 298 298 297 296 296 295 295 295 295 295 295 294
Wind_Speed
7 7 1 3 4 4 4 8 3 7 3 1 4 8 9 2 3 4 6 16 20 16 13 14 16 16 15 17 16 16 16 15 14 13 13 13 13 13 13 12 11 10 11 11 11 11 11 11 10
5 5 2 0 3 1 6 6 11 8 6 6 6 4 5 3 3 8 10 16 20 16 12 12 15 16 17 17 16 15 14 14 14 13 13 14 13 12 12 11 10 10 9 10 9 9 9 9 9
4 4 3 3 4 6 5 5 4 1 6 5 4 6 4 3 3 4 17 18 19 15 12 12 15 16 17 16 16 15 14 13 14 13 13 13 11 12 11 10 9 9 8 8 8 7 7 7 6
3 4 4 1 9 8 8 8 10 9 4 6 6 8 4 2 10 7 20 19 18 14 12 13 15 16 17 16 15 15 13 13 13 13 11 9 10 11 13 10 9 8 7 7 6 6 5 5 5
2 1 2 4 10 9 6 9 8 4 6 6 4 5 4 2 10 16 18 17 18 11 12 13 15 17 17 16 15 15 13 12 12 11 10 9 4 12 13 11 9 7 6 5 5 4 4 4 4
3 3 3 8 10 14 3 9 8 7 7 4 7 8 2 6 12 8 15 15 14 14 13 11 13 14 15 15 15 14 13 11 10 12 11 10 7 7 8 9 7 6 5 4 3 2 1 2 3
5 3 5 7 10 7 4 2 8 8 8 6 8 6 4 4 7 9 13 13 14 13 13 10 10 12 13 12 12 12 11 10 9 9 11 11 8 6 6 6 5 5 4 3 2 2 3 4 5
4 3 4 6 11 8 9 5 3 6 4 5 4 7 5 6 10 10 12 13 13 12 11 9 7 8 7 8 11 10 10 9 10 8 8 8 8 7 7 6 5 6 6 5 4 4 5 6 7
2 4 11 8 8 5 4 5 2 1 8 5 4 5 7 14 9 8 11 10 13 11 12 9 8 7 7 6 6 8 8 8 8 7 7 6 4 5 6 7 8 8 6 5 6 6 7 7 9
7 8 9 5 8 1 9 6 9 5 7 5 8 8 13 8 8 12 13 12 12 13 12 11 11 9 8 7 7 6 5 4 4 5 6 4 5 5 6 7 8 8 8 8 8 9 9 7 4
6 13 10 1 2 6 10 3 6 10 2 9 13 16 8 6 6 10 9 11 9 12 9 9 9 10 10 8 6 4 3 3 4 7 6 5 4 4 4 3 3 4 5 3 5 5 4 5 4
4 7 5 4 6 5 2 2 4 6 6 12 21 20 13 11 8 11 13 12 12 9 11 9 8 7 7 5 6 7 5 5 4 5 7 4 3 3 4 3 4 4 3 5 5 3 4 5 6
4 4 7 1 9 8 7 3 5 7 1 13 18 18 17 14 9 5 8 12 13 11 9 9 8 6 5 4 4 5 5 4 5 5 6 5 4 4 3 4 4 4 4 4 4 4 3 4 5
5 3 5 2 9 8 4 2 4 3 7 17 19 15 15 16 18 10 6 12 15 13 13 12 10 7 6 5 5 4 4 5 4 5 5 7 5 4 4 4 4 4 4 4 4 4 4 3 3
4 5 2 4 1 7 2 5 5 4 7 14 13 13 13 12 14 17 14 13 15 14 14 14 13 11 9 7 6 4 4 5 5 4 6 6 6 6 5 4 4 4 4 5 3 3 2 3 3
2 6 5 7 9 6 6 5 9 4 10 10 10 11 13 14 14 12 9 8 13 13 15 14 12 14 12 9 6 4 4 4 4 4 4 6 6 6 5 4 4 4 3 3 3 3 4 3 4
4 2 5 10 5 8 1 5 6 6 9 9 9 9 11 12 12 11 10 6 11 12 12 14 13 14 12 9 6 6 6 4 4 4 4 6 6 6 5 4 4 5 4 4 4 4 3 3 3
4 3 4 6 3 1 11 6 6 3 5 7 7 9 9 11 13 13 13 8 8 8 8 10 9 10 9 6 5 4 4 4 4 4 5 7 5 7 6 5 5 5 4 4 4 4 4 4 4
8 8 4 3 6 5 7 7 6 5 0 3 1 7 9 10 9 13 11 9 8 9 9 9 8 7 6 3 4 3 5 5 4 5 7 7 7 7 7 5 5 5 5 5 6 3 5 4 2
16 13 7 7 4 5 1 9 4 3 4 4 4 4 6 7 7 7 8 8 8 8 8 8 9 9 7 6 4 4 4 2 3 4 5 6 6 6 6 7 6 6 4 7 6 4 2 1 2
14 8 3 1 4 2 3 2 6 3 3 2 6 5 7 2 6 5 6 5 5 4 5 4 3 5 4 7 4 2 2 2 1 1 2 6 7 6 6 6 6 7 6 6 5 4 5 3 2
9 3 4 6 5 2 2 0 6 7 6 10 9 9 8 10 8 6 4 4 4 6 6 4 3 4 3 5 3 4 4 4 3 3 3 4 5 5 5 5 5 6 4 3 4 3 3 3 5
6 5 5 5 3 1 5 7 7 6 7 7 7 8 8 6 7 8 8 6 6 5 6 5 6 6 5 4 4 3 2 1 1 1 2 2 2 2 4 3 4 1 0 3 4 3 4 3 3
9 4 5 4 3 3 8 3 2 3 0 2 4 7 7 8 7 5 4 5 4 5 5 5 5 3 3 3 3 4 4 3 2 0 1 2 2 2 3 3 4 4 3 1 2 2 1 2 2
2 2 3 4 3 2 5 3 1 4 6 4 5 6 5 5 6 6 5 3 2 2 2 3 5 2 1 3 3 3 3 2 2 1 0 0 1 2 4 4 4 4 3 2 2 2 2 2 1
4 3 4 4 3 3 4 5 4 2 4 4 4 4 5 4 3 3 3 2 2 2 2 1 3 3 3 3 3 3 4 3 3 2 2 3 3 2 3 5 5 4 4 4 4 3 3 3 2
4 1 2 6 2 3 2 6 7 3 5 6 8 6 5 4 2 1 2 2 1 1 1 3 4 3 3 4 4 4 4 5 4 4 4 3 3 3 5 5 5 4 4 4 5 3 3 4 3
1 5 4 3 3 0 2 3 5 1 5 4 7 7 7 5 2 1 2 2 2 2 2 3 3 4 3 4 3 4 4 4 4 4 5 5 3 3 5 5 5 5 4 4 5 4 4 5 2
3 2 4 4 3 3 3 1 4 5 4 6 5 4 4 4 3 3 3 3 4 3 4 4 4 3 3 4 3 4 3 4 5 5 4 3 4 4 5 5 5 5 5 5 5 5 5 5 5
1 1 2 4 2 0 2 2 5 5 5 6 6 7 5 4 4 3 3 3 4 4 3 3 4 4 4 3 4 4 4 4 5 5 5 4 5 4 4 5 5 5 5 5 5 5 5 5 5
Wind_Direction
336 311 265 18 56 72 248 254 209 275 168 128 68 79 118 356 90 180 125 124 131 139 146 142 142 141 146 134 126 122 121 116 114 110 111 110 107 106 104 103 101 98 99 98 88 82 77 74 73
319 305 20 15 114 201 270 239 263 216 176 102 63 70 69 78 83 122 105 137 135 140 146 143 142 140 138 132 129 124 123 122 120 121 119 115 112 109 109 107 107 107 104 97 94 85 78 71 65
286 192 84 168 195 210 236 277 23 324 140 114 88 60 79 109 69 127 130 136 131 138 143 143 144 141 136 137 129 128 128 126 127 128 126 124 121 124 121 117 112 106 105 100 95 87 78 69 61
284 6 346 201 245 247 218 258 175 151 47 91 121 75 56 226 145 135 136 134 128 142 142 146 145 139 141 140 137 134 136 137 136 137 135 121 132 133 129 122 120 113 108 106 98 89 76 62 46
313 83 205 233 253 261 224 218 155 135 141 160 140 127 72 42 128 124 135 133 135 135 143 152 147 142 143 143 143 142 144 142 137 139 131 130 84 135 134 129 131 128 122 117 107 90 69 42 23
259 166 178 227 253 259 253 204 147 156 157 197 93 106 113 134 129 133 132 133 129 136 141 150 144 144 146 148 148 146 148 149 145 147 136 144 132 116 110 121 137 132 139 135 126 112 61 349 329
176 129 212 233 251 278 284 199 157 190 160 181 145 90 140 135 162 122 130 115 128 133 137 139 147 149 147 149 148 146 152 155 156 153 157 152 156 154 146 147 154 162 164 174 202 254 281 284 294
199 149 224 225 248 269 205 250 198 155 196 126 104 148 177 194 162 130 129 117 126 131 133 137 138 143 140 147 149 149 159 165 160 154 152 157 169 172 176 182 191 197 201 218 246 263 275 288 292
281 189 218 219 232 249 268 170 46 297 112 56 64 121 162 144 135 122 139 123 136 142 143 145 145 144 143 143 153 151 162 165 166 164 169 163 182 198 203 200 208 220 215 229 246 259 266 269 275
199 198 212 197 242 240 243 187 159 121 122 53 78 57 125 114 148 144 159 150 147 152 156 159 162 161 156 161 155 164 169 174 180 178 183 197 206 209 210 213 208 204 214 231 247 255 256 266 266
206 220 219 180 288 273 212 211 183 130 189 177 158 145 157 136 160 149 152 155 153 150 161 165 161 164 170 172 170 167 174 182 190 192 192 208 213 215 179 197 188 212 228 240 249 261 247 250 254
190 222 179 56 332 319 299 195 199 152 206 173 157 151 156 169 183 168 162 152 160 152 157 156 161 160 169 164 168 175 178 192 194 202 196 196 206 197 198 189 205 210 212 225 230 244 239 242 244
196 215 192 174 10 298 318 151 213 185 145 147 134 144 156 175 182 183 171 154 159 163 152 163 161 166 185 173 186 166 190 186 201 192 199 185 196 207 209 214 213 209 201 211 226 233 251 258 265
315 197 224 227 338 281 329 302 210 167 104 128 138 152 159 174 182 177 206 174 170 169 161 166 170 178 179 193 202 193 188 199 193 195 198 197 189 197 209 220 228 225 208 215 216 227 237 243 257
356 127 86 224 193 299 130 282 200 128 133 145 144 154 159 177 183 192 195 190 171 176 169 168 173 176 188 197 208 209 203 185 195 194 197 199 195 200 203 222 230 223 223 229 224 226 241 243 254
15 158 169 183 47 294 94 269 260 239 153 156 156 160 164 178 191 200 204 185 170 169 173 173 177 180 185 191 199 199 201 184 187 197 204 207 213 206 209 218 233 234 231 217 200 217 242 259 259
344 195 191 147 156 340 218 257 313 193 161 166 166 166 167 169 184 198 216 214 172 167 172 173 176 179 184 186 181 186 192 195 205 205 212 219 212 210 204 211 228 228 228 222 208 228 216 248 279
99 46 92 92 152 237 295 269 325 17 152 176 200 164 166 167 185 190 207 209 172 165 166 169 174 175 174 164 169 184 191 209 199 209 215 218 218 213 202 208 216 216 220 231 239 212 228 230 239
93 89 63 114 105 209 279 286 266 290 334 129 162 176 169 174 182 181 191 199 176 168 167 167 161 174 159 159 172 182 198 204 205 208 216 213 211 210 206 211 208 209 211 222 229 201 235 257 85
88 74 22 336 14 201 244 287 286 199 251 203 150 142 170 144 155 166 162 167 161 163 169 164 179 181 184 182 179 180 185 195 194 200 216 221 224 216 205 201 203 205 219 234 222 207 231 247 142
70 65 37 189 230 264 129 278 285 255 228 239 97 84 40 34 138 126 118 122 137 97 87 102 129 175 188 179 165 169 108 76 83 211 232 229 222 221 215 205 213 214 220 228 209 197 203 216 244
69 306 346 19 65 194 131 341 10 341 45 31 16 52 40 25 18 33 44 153 159 128 107 97 77 91 63 68 131 155 167 171 205 218 239 247 232 229 226 218 200 212 215 227 223 214 190 180 245
129 237 30 21 78 339 26 95 330 342 34 27 24 31 35 37 36 23 26 41 52 39 61 80 82 64 52 54 89 118 143 128 78 89 63 8 346 356 267 245 239 275 248 222 203 185 200 210 230
158 167 97 43 70 81 313 45 307 291 102 68 27 28 15 5 23 49 34 53 55 43 57 68 80 52 47 67 79 108 135 143 142 3 338 312 336 7 41 43 73 69 50 153 183 193 189 204 185
297 122 55 31 46 154 201 74 296 17 26 29 9 13 6 22 12 17 34 72 74 75 79 103 134 130 100 94 86 92 112 125 149 159 173 20 15 38 25 26 54 52 48 46 76 118 126 109 178
212 165 136 142 159 183 167 169 89 82 44 67 75 56 61 64 48 51 42 52 73 123 126 94 134 124 115 109 92 74 78 97 92 87 86 79 82 76 51 58 55 43 39 52 58 69 57 59 74
220 120 153 109 28 76 223 111 66 58 72 28 32 43 46 52 53 111 87 101 98 76 106 153 144 122 104 101 104 84 70 77 79 71 81 86 86 84 74 75 76 65 62 75 81 79 73 78 73
156 166 75 4 95 80 304 60 125 179 72 50 44 33 10 9 36 228 210 161 129 164 146 110 126 133 127 105 108 104 101 96 87 80 85 87 86 84 90 87 84 73 64 83 94 87 82 90 74
31 0 58 104 98 135 127 293 190 150 115 71 53 54 32 5 339 286 251 200 185 187 187 154 145 134 130 144 121 120 107 105 104 100 92 92 87 87 90 91 86 82 76 70 80 86 98 100 89
277 69 149 120 220 90 101 197 196 147 87 55 26 11 9 5 342 321 272 225 204 203 206 189 172 171 176 149 133 127 130 122 117 120 118 110 100 83 89 87 77 69 65 64 78 81 84 90 85